Location: Brownlee
(50.7397°N, 106.0159°W)
Time: 16:03:22
(UTC+00:00)

BlueWalker 3 - Visible Passes

Search period start: 08 December 2022 00:00
Search period end: 18 December 2022 00:00
Orbit: 501 x 518 km, 53.2° (Epoch: 08 December)

Date Brightness Start Highest point End Pass type
(mag) Time Alt. Az. Time Alt. Az. Time Alt. Az.
08 Dec 2.0 00:00:49 10° WNW 00:04:44 70° NNE 00:08:29 11° E visible
08 Dec 2.9 01:39:36 10° WNW 01:43:19 43° SSW 01:43:19 43° SSW visible
08 Dec 2.0 23:42:24 10° WNW 23:46:20 71° NNE 23:50:14 10° E visible
09 Dec 3.0 01:21:12 10° WNW 01:24:54 41° SSW 01:26:07 31° S visible
10 Dec 3.2 01:02:48 10° WNW 01:06:28 39° SW 01:09:06 17° SSE visible
11 Dec 3.4 00:44:23 10° WNW 00:48:02 38° SW 00:51:38 10° SSE visible
12 Dec 3.5 00:25:59 10° WNW 00:29:35 36° SW 00:33:10 10° SSE visible
13 Dec 3.7 00:07:33 10° WNW 00:11:08 34° SW 00:14:40 10° SSE visible
13 Dec 3.9 23:49:08 10° W 23:52:40 33° SW 23:56:11 10° SSE visible
